INTELSAT 902 (IS-902)

Last updated on Mon Jun 30 2025 00:02:43 GMT+0000 (Coordinated Universal Time)

1 26900U 01039A 25180.09766951 -.00000290 00000+0 00000+0 0 9999 2 26900 5.2233 76.1198 0004234 23.9096 162.4780 1.00270479 87157
UTC large
Height (km)
Speed (km/s)
/
Latitude / Longitude
Inclination (degrees)
Orbital Period (minutes)
Azimuth
Elevation
Range (km)
Doppler Factor

Next 0 passes for location: London (51.5072 / 0.1276)

Sorry there are no passes over London.